Sharm El Sheikh, Egypt

3:26 AM EET on September 23, 2017 (GMT +0200)
Sharm El Sheikh

Weather History for HESH - November, 2012

Change the Weather History Date:

Tuesday, November 13, 2012

  Actual Average Record
Temperature  
Mean Temperature 76 °F -  
Max Temperature 84 °F 78 °F - ()
Min Temperature 68 °F 62 °F - ()
Cooling Degree Days 11    
Growing Degree Days 26 (Base 50)    
Moisture  
Dew Point 49 °F    
Average Humidity 42    
Maximum Humidity 52    
Minimum Humidity 25    
Precipitation  
Precipitation 0.00 in 0.00 in - ()
Sea Level Pressure  
Sea Level Pressure 29.95 in    
Wind  
Wind Speed 8 mph ()    
Max Wind Speed 16 mph    
Max Gust Speed -    
Visibility 6.2 miles    
Events      
T = Trace of Precipitation, MM = Missing Value Source: Averaged Metar Reports

Daily Weather History Graph

Daily Weather History Graph

Search for Another Location

Airport or City:

Trip Planner

Search our weather history database for the weather conditions in past years. The results will help you decide how hot, cold, wet, or windy it might be!

Date:

Astronomy

Nov. 13, 2012 Rise Set
Actual Time 6:02 AM EET 4:50 PM EET
Civil Twilight 5:37 AM EET 5:15 PM EET
Nautical Twilight 5:09 AM EET 5:43 PM EET
Astronomical Twilight 4:41 AM EET 6:11 PM EET
Moon 5:16 AM EET (11/13) 4:27 PM EET (11/13)
Length of Visible Light 11h 37m
Length of Day
10h 48m
Waning Crescent, 0% of the Moon is Illuminated
Nov 13
Waning Crescent
Nov 14
New
Nov 20
First Quarter
Nov 28
Full
Dec 6
Last Quarter

Hourly Weather History & Observations

Time (EET) Temp. Dew Point Humidity Pressure Visibility Wind Dir Wind Speed Gust Speed Precip Events Conditions
12:00 AM 69.8 °F 46.4 °F 43% 29.95 in - North 6.9 mph - N/A   Clear
1:00 AM 68.0 °F 48.2 °F 49% 29.95 in - NNE 3.5 mph - N/A   Clear
2:00 AM 68.0 °F 50.0 °F 52% 29.95 in - North 9.2 mph - N/A   Clear
3:00 AM 68.0 °F 50.0 °F 52% 29.95 in - North 6.9 mph - N/A   Clear
4:00 AM 68.0 °F 50.0 °F 52% 29.95 in - North 8.1 mph - N/A   Clear
5:00 AM 68.0 °F 50.0 °F 52% 29.95 in - North 11.5 mph - N/A   Clear
6:00 AM 68.0 °F 48.2 °F 49% 29.95 in 6.2 mi North 15.0 mph - N/A   Partly Cloudy
7:00 AM 69.8 °F 48.2 °F 46% 29.95 in 6.2 mi North 16.1 mph - N/A   Partly Cloudy
8:00 AM 73.4 °F 48.2 °F 41% 29.98 in 6.2 mi North 11.5 mph - N/A   Partly Cloudy
9:00 AM 77.0 °F 44.6 °F 32% 29.98 in - North 15.0 mph - N/A   Clear
10:00 AM - - N/A% 29.98 in - North - - N/A   Clear
11:00 AM 80.6 °F 46.4 °F 30% 29.98 in - North 16.1 mph - N/A   Clear
12:00 PM 84.2 °F 46.4 °F 27% 29.95 in - NE 9.2 mph - N/A   Clear
1:00 PM 84.2 °F 44.6 °F 25% 29.92 in 6.2 mi NNE 10.4 mph - N/A   Mostly Cloudy
2:00 PM 80.6 °F 48.2 °F 32% 29.92 in 6.2 mi NE 9.2 mph - N/A   Mostly Cloudy
3:00 PM 78.8 °F 46.4 °F 32% 29.92 in 6.2 mi North 8.1 mph - N/A   Mostly Cloudy
4:00 PM 78.8 °F 48.2 °F 34% 29.92 in 6.2 mi North 8.1 mph - N/A   Mostly Cloudy
5:00 PM 75.2 °F 51.8 °F 44% 29.92 in 6.2 mi North 6.9 mph - N/A   Mostly Cloudy
6:00 PM 75.2 °F 53.6 °F 47% 29.92 in - NNW 9.2 mph - N/A   Clear
7:00 PM 73.4 °F 51.8 °F 47% 29.95 in - North 6.9 mph - N/A   Clear
8:00 PM 73.4 °F 50.0 °F 44% 29.95 in - North 6.9 mph - N/A   Clear
9:00 PM 71.6 °F 50.0 °F 46% 29.95 in - NNW 8.1 mph - N/A   Clear
10:00 PM 71.6 °F 48.2 °F 43% 29.98 in - North 10.4 mph - N/A   Clear
11:00 PM 69.8 °F 48.2 °F 46% 29.95 in - North 11.5 mph - N/A   Clear